Texarkana, AR

8:58 AM CDT on April 25, 2017 (GMT -0500)
Texarkana Regional-Webb

Weather History for KTXK - March, 2013

Change the Weather History Date:

Sunday, March 31, 2013

  Actual Average Record
Temperature  
Mean Temperature 63 °F 60 °F  
Max Temperature 71 °F 72 °F 90 °F (1974)
Min Temperature 54 °F 48 °F 25 °F (1987)
Degree Days  
Heating Degree Days 2 6  
Month to date heating degree days 390 301  
Since 1 July heating degree days 2336 2494  
Cooling Degree Days 0 1  
Month to date cooling degree days 11 19  
Year to date cooling degree days 15 23  
Growing Degree Days 14 (Base 50)    
Moisture  
Dew Point 58 °F    
Average Humidity 81    
Maximum Humidity 100    
Minimum Humidity 61    
Precipitation  
Precipitation 0.81 in 0.15 in 1.75 in (1932)
Month to date precipitation 2.60 4.20  
Year to date precipitation 8.05 11.59  
Snow  
Snow 0.00 in - - ()
Month to date snowfall 0.0  
Since 1 July snowfall 2.1  
Snow Depth 0.00 in    
Sea Level Pressure  
Sea Level Pressure 29.93 in    
Wind  
Wind Speed 6 mph (SE)    
Max Wind Speed 25 mph    
Max Gust Speed 39 mph    
Visibility 7 miles    
Events Rain , Thunderstorm    
T = Trace of Precipitation, MM = Missing Value Source: NWS Daily Summary

Daily Weather History Graph

Daily Weather History Graph

Search for Another Location

Airport or City:

Trip Planner

Search our weather history database for the weather conditions in past years. The results will help you decide how hot, cold, wet, or windy it might be!

Date:

Astronomy

Mar. 31, 2013 Rise Set
Actual Time 7:04 AM CDT 7:35 PM CDT
Civil Twilight 6:39 AM CDT 8:00 PM CDT
Nautical Twilight 6:10 AM CDT 8:30 PM CDT
Astronomical Twilight 5:40 AM CDT 9:00 PM CDT
Moon No Moon Rise 10:05 AM CDT (3/31)
Length of Visible Light 13h 21m
Length of Day
12h 31m
Waning Gibbous, 77% of the Moon is Illuminated
Mar 31
Waning Gibbous
Apr 2
Last Quarter
Apr 10
New
Apr 18
First Quarter
Apr 25
Full

Hourly Weather History & Observations

Time (CDT) Temp. Dew Point Humidity Pressure Visibility Wind Dir Wind Speed Gust Speed Precip Events Conditions
12:53 AM 60.1 °F 60.1 °F 100% 29.93 in 2.0 mi ENE 3.5 mph - N/A   Clear
1:06 AM 60.8 °F 60.8 °F 100% 29.94 in 5.0 mi Calm Calm - N/A   Scattered Clouds
1:53 AM 60.1 °F 60.1 °F 100% 29.92 in 1.8 mi Calm Calm - N/A   Scattered Clouds
2:02 AM 60.8 °F 60.8 °F 100% 29.93 in 3.0 mi Calm Calm - N/A   Partly Cloudy
2:53 AM 62.1 °F 61.0 °F 96% 29.91 in 7.0 mi South 5.8 mph - N/A   Mostly Cloudy
3:39 AM 62.6 °F 60.8 °F 94% 29.97 in 7.0 mi North 19.6 mph 25.3 mph N/A Thunderstorm Mostly Cloudy
3:53 AM 60.1 °F 55.9 °F 86% 29.94 in 9.0 mi NNE 16.1 mph 26.5 mph N/A Thunderstorm Overcast
4:30 AM 60.8 °F 53.6 °F 77% 29.92 in 10.0 mi South 4.6 mph - N/A   Overcast
4:43 AM 60.8 °F 55.4 °F 82% 29.91 in 10.0 mi SSE 6.9 mph - N/A   Overcast
4:53 AM 60.1 °F 54.0 °F 80% 29.90 in 10.0 mi South 6.9 mph - N/A   Mostly Cloudy
5:53 AM 62.1 °F 57.0 °F 84% 29.88 in 10.0 mi South 8.1 mph - N/A   Partly Cloudy
6:39 AM 62.6 °F 59.0 °F 88% 29.88 in 10.0 mi South 9.2 mph - N/A   Mostly Cloudy
6:53 AM 62.1 °F 59.0 °F 90% 29.88 in 9.0 mi South 9.2 mph - N/A   Overcast
7:26 AM 62.6 °F 60.8 °F 94% 29.90 in 5.0 mi South 9.2 mph - N/A   Overcast
7:53 AM 62.1 °F 62.1 °F 100% 29.88 in 4.0 mi South 10.4 mph - N/A   Overcast
8:53 AM 63.0 °F 62.1 °F 97% 29.91 in 4.0 mi SSW 3.5 mph - N/A   Overcast
9:21 AM 60.8 °F 57.2 °F 88% 29.97 in 2.5 mi North 21.9 mph 39.1 mph 0.06 in Rain Heavy Rain
9:26 AM 57.2 °F 55.4 °F 94% 29.99 in 1.5 mi NNW 11.5 mph 31.1 mph 0.14 in Rain Heavy Rain
9:41 AM 57.2 °F 57.2 °F 100% 29.99 in 1.5 mi North 9.2 mph - 0.28 in Rain Heavy Rain
9:53 AM 57.0 °F 57.0 °F 100% 29.97 in 2.0 mi NNE 11.5 mph - 0.34 in Rain Rain
10:38 AM 57.2 °F 57.2 °F 100% 30.01 in 1.2 mi Calm Calm - 0.21 in Rain Heavy Rain
10:53 AM 57.0 °F 57.0 °F 100% 30.00 in 1.2 mi South 3.5 mph - 0.31 in Rain Heavy Rain
11:02 AM 57.2 °F 57.2 °F 100% 30.00 in 2.0 mi SSE 8.1 mph - 0.05 in Rain Heavy Rain
11:19 AM 57.2 °F 57.2 °F 100% 29.98 in 3.0 mi SSE 5.8 mph - 0.11 in Rain Rain
11:53 AM 57.0 °F 57.0 °F 100% 29.85 in 8.0 mi ESE 15.0 mph 19.6 mph 0.16 in Rain Light Rain
12:37 PM 60.8 °F 57.2 °F 88% 29.91 in 10.0 mi SSE 4.6 mph - 0.00 in   Clear
12:53 PM 62.1 °F 59.0 °F 90% 29.92 in 10.0 mi Calm Calm - 0.00 in   Clear
1:22 PM 62.6 °F 59.0 °F 88% 29.94 in 10.0 mi Calm Calm - N/A   Mostly Cloudy
1:53 PM 64.9 °F 60.1 °F 84% 29.93 in 10.0 mi SW 3.5 mph - N/A   Scattered Clouds
2:53 PM 68.0 °F 57.9 °F 70% 29.92 in 10.0 mi Variable 6.9 mph - N/A   Scattered Clouds
3:53 PM 69.1 °F 57.0 °F 65% 29.91 in 10.0 mi NNE 6.9 mph - N/A   Clear
4:53 PM 70.0 °F 57.0 °F 63% 29.90 in 10.0 mi NW 6.9 mph - N/A   Clear
5:53 PM 70.0 °F 55.0 °F 59% 29.89 in 10.0 mi NNE 4.6 mph - N/A   Clear
6:53 PM 69.1 °F 55.9 °F 63% 29.90 in 10.0 mi NNE 3.5 mph - N/A   Clear
7:53 PM 61.0 °F 57.0 °F 87% 29.92 in 10.0 mi Calm Calm - N/A   Partly Cloudy
9:53 PM 61.0 °F 55.9 °F 83% 29.95 in 10.0 mi ESE 4.6 mph - N/A   Scattered Clouds
10:53 PM 59.0 °F 55.9 °F 90% 29.96 in 10.0 mi ESE 3.5 mph - N/A   Clear
11:53 PM 59.0 °F 57.0 °F 93% 29.97 in 10.0 mi SE 4.6 mph - N/A   Partly Cloudy